TimeMST,TemperatureF,Dew PointF,Humidity,Sea Level PressureIn,VisibilityMPH,Wind Direction,Wind SpeedMPH,Gust SpeedMPH,PrecipitationIn,Events,Conditions,WindDirDegrees,DateUTC
12:53 AM,37.9,24.1,57,29.79,10.0,NW,8.1,-,N/A,,Clear,310,2012-12-06 07:53:00
1:53 AM,41.0,25.0,53,29.80,10.0,NNW,10.4,-,N/A,,Clear,340,2012-12-06 08:53:00
2:53 AM,45.0,26.1,48,29.82,10.0,North,13.8,-,N/A,,Clear,350,2012-12-06 09:53:00
3:53 AM,44.1,27.0,51,29.84,10.0,NNW,11.5,-,N/A,,Clear,340,2012-12-06 10:53:00
4:53 AM,46.0,28.0,50,29.85,10.0,NNW,12.7,-,N/A,,Mostly Cloudy,340,2012-12-06 11:53:00
5:53 AM,46.9,30.0,52,29.85,10.0,North,15.0,-,N/A,,Mostly Cloudy,360,2012-12-06 12:53:00
6:53 AM,45.0,30.0,56,29.91,10.0,North,15.0,23.0,N/A,,Clear,10,2012-12-06 13:53:00
7:53 AM,44.1,30.9,60,29.96,10.0,North,16.1,25.3,N/A,,Overcast,10,2012-12-06 14:53:00
8:53 AM,44.1,25.0,47,29.99,10.0,NNE,18.4,28.8,N/A,,Overcast,30,2012-12-06 15:53:00
9:53 AM,44.1,21.0,40,30.04,10.0,NNE,19.6,25.3,N/A,,Overcast,20,2012-12-06 16:53:00
10:53 AM,45.0,18.0,34,30.03,10.0,NNE,15.0,25.3,N/A,,Mostly Cloudy,30,2012-12-06 17:53:00
11:53 AM,44.1,16.0,32,30.01,10.0,North,16.1,-,N/A,,Overcast,360,2012-12-06 18:53:00
12:53 PM,45.0,14.0,29,29.99,10.0,NNE,18.4,-,N/A,,Overcast,20,2012-12-06 19:53:00
1:53 PM,45.0,12.0,26,29.98,10.0,NNE,16.1,-,N/A,,Mostly Cloudy,20,2012-12-06 20:53:00
2:53 PM,46.9,10.0,22,29.96,10.0,NNE,16.1,-,N/A,,Clear,20,2012-12-06 21:53:00
3:53 PM,42.1,14.0,32,29.97,9.0,NNE,8.1,-,N/A,,Clear,30,2012-12-06 22:53:00
4:53 PM,35.1,12.9,40,29.99,10.0,NE,4.6,-,N/A,,Clear,40,2012-12-06 23:53:00
5:53 PM,34.0,12.9,42,29.99,10.0,ENE,4.6,-,N/A,,Clear,60,2012-12-07 00:53:00
6:53 PM,30.9,12.9,47,29.99,10.0,ENE,5.8,-,N/A,,Partly Cloudy,60,2012-12-07 01:53:00
7:53 PM,28.0,12.0,51,30.01,10.0,East,4.6,-,N/A,,Mostly Cloudy,90,2012-12-07 02:53:00
8:53 PM,32.0,14.0,48,30.01,10.0,ESE,3.5,-,N/A,,Overcast,110,2012-12-07 03:53:00
9:53 PM,32.0,12.9,45,30.01,10.0,ESE,4.6,-,N/A,,Overcast,120,2012-12-07 04:53:00
10:53 PM,26.1,12.0,55,30.00,10.0,Calm,Calm,-,N/A,,Mostly Cloudy,0,2012-12-07 05:53:00
11:53 PM,27.0,12.9,56,29.99,10.0,SSE,5.8,-,N/A,,Mostly Cloudy,150,2012-12-07 06:53:00